[[{"header":{"parameterUnit":"m.s-1","parameterCategory":1,"la1":30.2991,"la2":30.254,"lo1":-89.0895,"lo2":-89.0444,"dy":0.0017,"dx":0.0017,"nx":28,"ny":28,"refTime":"2024-08-11T09:00:00:Z","depth":0,"parameterNumber":2,"parameterNumberName":"U-component_of_WINDS"},"data":[0,0,0,0,0,0,0,0,0,0,0,0,0,0,0,0,0,0,0,0,0,0,0,0,0,0,0,0,0,0,0,0,0,0,0,0,0,0,0,0,0,0,0,0,0,0,0,0,0,0,0,0,0,0,0,0,0,0,1.7932,1.7934,0,1.8069,1.807,1.8072,1.8114,1.8113,1.8112,1.8112,1.8254,1.8258,1.8262,0,0,0,0,0,0,0,0,0,0,0,0,0,1.771,1.7714,1.7932,1.7934,1.7936,1.8068,1.807,1.8072,1.8114,1.8113,1.8112,1.8111,1.8252,1.8257,1.8263,0,0,0,0,0,0,0,0,0,0,0,0,0,1.7822,1.7715,1.7932,1.7972,1.7977,1.8068,1.807,1.8073,1.8114,1.8113,1.8112,1.8111,1.825,1.8257,1.8263,1.8324,0,0,1.8283,1.8286,0,0,0,0,0,0,0,0,1.7816,1.783,1.7965,1.797,1.7975,1.8073,1.8044,1.8157,1.8114,1.8062,1.8112,1.811,1.8194,1.8206,1.8233,1.8331,1.8337,1.8284,1.8288,1.8291,1.8293,0,0,0,0,0,0,0,1.7808,1.7825,1.7986,1.7967,1.7973,1.7984,1.7999,1.8065,1.8132,1.8067,1.807,1.8085,1.8197,1.8227,1.8237,1.8339,1.8284,1.829,1.8294,1.8296,1.8493,1.8494,0,0,0,0,0,0,1.7793,1.7818,1.7982,1.799,1.7891,1.7989,1.8006,1.8043,1.8132,1.8144,1.8086,1.8087,1.8216,1.8229,1.8242,1.8319,1.8291,1.8297,1.8301,1.8491,1.8493,1.8494,0,0,0,0,0,0,1.7788,1.7807,1.7976,1.7905,1.7928,1.7994,1.8035,1.8046,1.8076,1.8146,1.8159,1.8104,1.8216,1.8233,1.8303,1.8324,1.83,1.8306,1.849,1.8492,1.8494,1.8472,0,0,0,0,0,0,1.7782,1.7805,1.7829,1.7905,1.7931,1.8035,1.8037,1.8049,1.8087,1.8089,1.8167,1.8178,1.8216,1.8293,1.831,1.8333,1.8311,1.8488,1.8491,1.8493,1.8472,1.8473,1.8475,0,0,0,0,0,1.7773,1.7818,1.783,1.7849,1.7962,1.8036,1.8051,1.8092,1.8088,1.8113,1.8158,1.8176,1.8319,1.83,1.8319,1.8344,1.8487,1.849,1.8493,1.8471,1.8473,1.8475,0,0,0,0,0,0,1.7743,1.7829,1.7843,1.7913,1.7967,1.8043,1.8075,1.8094,1.815,1.815,1.82,1.8218,1.8284,1.8322,1.8298,1.8408,1.8404,1.8411,1.8381,1.8383,1.8385,1.8374,1.8317,0,0,0,0,0,1.7744,1.7797,1.7869,1.7925,1.7951,1.8008,1.8042,1.8069,1.8127,1.815,1.8201,1.8256,1.8314,1.8351,1.8408,1.8477,1.8495,1.8504,1.8506,1.8507,1.8512,1.8551,1.8556,1.8504,1.8503,1.8503,0,0,1.7748,1.7802,1.7832,1.792,1.7964,1.8018,1.8027,1.8083,1.8123,1.8159,1.8228,1.8267,1.8332,1.8402,1.8435,1.8435,1.853,1.851,1.8511,1.8516,1.8554,1.8559,1.8563,1.8505,1.8505,1.8505,0,0,1.7782,1.7828,1.7878,1.7923,1.799,1.8027,1.8039,1.8112,1.8139,1.8209,1.8237,1.8286,1.8384,1.8429,1.8465,1.8515,1.8534,1.8532,1.8541,1.8578,1.8582,1.8586,1.8603,1.8608,1.8537,1.8537,1.8537,0,1.7778,1.7859,1.7902,1.7957,1.7994,1.8028,1.808,1.8121,1.8204,1.8229,1.8228,1.8351,1.8398,1.8478,1.849,1.8519,1.8534,1.8523,1.8578,1.8582,1.8586,1.8603,1.861,1.8537,1.8537,1.8537,1.8537,0,1.7851,1.7906,1.7939,1.8017,1.8058,1.8111,1.8163,1.82,1.8224,1.8261,1.8332,1.8389,1.8457,1.8479,1.8503,1.8562,1.856,1.8568,1.8565,1.859,1.8606,1.8613,1.8536,1.8536,1.8536,1.8536,0,0,1.7869,1.7969,1.7981,1.8016,1.8092,1.8136,1.819,1.8257,1.8287,1.8343,1.8389,1.8471,1.8478,1.8519,1.8549,1.8581,1.8616,1.8585,1.8587,1.8588,1.8684,1.8677,1.8684,1.8629,1.863,1.8632,1.8678,0,1.7912,1.8009,1.805,1.8129,1.818,1.8213,1.826,1.8312,1.8349,1.8398,1.8439,1.8496,1.8502,1.8526,1.856,1.8605,1.8636,1.8602,1.8673,1.8675,1.8654,1.8693,1.8686,1.8728,1.8685,1.8686,1.8687,0,1.7975,1.803,1.8113,1.8183,1.8206,1.8247,1.8311,1.8358,1.8417,1.8442,1.8486,1.8514,1.8573,1.8566,1.8647,1.8623,1.8654,1.868,1.8683,1.8691,1.8682,1.8701,1.8742,1.8748,1.8698,1.8697,1.8696,0,1.7979,1.8074,1.8136,1.8165,1.8248,1.8276,1.8312,1.8371,1.8407,1.8463,1.8488,1.855,1.8583,1.8631,1.8675,1.8666,1.8751,1.8748,1.8773,1.8772,1.8789,1.8787,1.8835,1.881,1.881,1.881,1.881,0,1.8022,1.8072,1.8139,1.8177,1.8233,1.8279,1.8334,1.8373,1.8424,1.847,1.8503,1.8546,1.8601,1.8651,1.8686,1.8747,1.8763,1.8784,1.8793,1.8781,1.8778,1.8802,1.88,1.8812,1.8811,1.8811,1.8811,0,1.8036,1.8083,1.8152,1.8224,1.8244,1.8282,1.8344,1.8382,1.842,1.8478,1.8495,1.8555,1.8615,1.8663,1.8743,1.8766,1.883,1.884,1.8809,1.8814,1.8835,1.8832,1.8899,1.891,1.8878,1.8879,1.8879,0,1.806,1.8099,1.8174,1.8207,1.8242,1.8295,1.8333,1.838,1.8417,1.8488,1.8517,1.858,1.8632,1.8727,1.8778,1.8839,1.885,1.8869,1.8859,1.8846,1.8849,1.8846,1.885,1.887,1.887,1.887,1.887,0,1.8097,1.8118,1.8171,1.8231,1.8275,1.8325,1.8376,1.8401,1.8457,1.8498,1.856,1.86,1.868,1.8742,1.8808,1.8845,1.8867,1.8873,1.8882,1.887,1.885,1.886,1.8811,1.8871,1.8871,1.8871,1.8871,1.8871,1.8117,1.8152,1.8211,1.8268,1.8311,1.8358,1.8397,1.8439,1.8491,1.856,1.8584,1.8647,1.8706,1.8796,1.8834,1.8884,1.8886,1.8899,1.8902,1.8904,1.8902,1.8842,1.8896,1.8896,1.8896,1.8896,1.8896,0,1.8155,1.8194,1.8246,1.8316,1.8361,1.8377,1.8434,1.8471,1.8526,1.8578,1.8628,1.8699,1.8758,1.8813,1.8875,1.8905,1.8916,1.892,1.8918,1.8926,1.8897,1.8883,1.8909,1.8909,1.8909,1.8909,1.8909,1.8909,1.818,1.8241,1.8269,1.8352,1.8391,1.8452,1.8483,1.8527,1.8568,1.8645,1.8694,1.873,1.8783,1.8849,1.8904,1.8919,1.894,1.894,1.8958,1.893,1.8928,1.8926,1.8913,1.8945,1.8945,1.8982,1.8982,1.8983]},{"header":{"parameterUnit":"m.s-1","parameterCategory":1,"la1":30.2991,"la2":30.254,"lo1":-89.0895,"lo2":-89.0444,"dy":0.0017,"dx":0.0017,"nx":28,"ny":28,"refTime":"2024-08-11T09:00:00:Z","depth":0,"parameterNumber":3,"parameterNumberName":"V-component_of_WINDS"},"data":[0,0,0,0,0,0,0,0,0,0,0,0,0,0,0,0,0,0,0,0,0,0,0,0,0,0,0,0,0,0,0,0,0,0,0,0,0,0,0,0,0,0,0,0,0,0,0,0,0,0,0,0,0,0,0,0,0,0,4.1649,4.1648,0,4.1613,4.1613,4.1612,4.1587,4.1587,4.1587,4.1586,4.1548,4.1547,4.1546,0,0,0,0,0,0,0,0,0,0,0,0,0,4.1692,4.1691,4.1649,4.1648,4.1648,4.1613,4.1613,4.1612,4.1587,4.1587,4.1587,4.1586,4.1548,4.1547,4.1546,0,0,0,0,0,0,0,0,0,0,0,0,0,4.1666,4.1691,4.1649,4.1631,4.1629,4.1613,4.1613,4.1612,4.1587,4.1587,4.1587,4.1586,4.1549,4.1547,4.1546,4.1544,0,0,4.1542,4.1542,0,0,0,0,0,0,0,0,4.1668,4.1665,4.1634,4.1632,4.163,4.1604,4.1614,4.1589,4.1587,4.1603,4.1586,4.1586,4.1567,4.1564,4.1558,4.1543,4.1541,4.1542,4.1541,4.1541,4.1541,0,0,0,0,0,0,0,4.167,4.1666,4.1635,4.1634,4.1631,4.1624,4.162,4.1609,4.1587,4.1602,4.16,4.1596,4.1566,4.1559,4.1557,4.154,4.1542,4.1541,4.154,4.154,4.1518,4.1519,0,0,0,0,0,0,4.1675,4.1668,4.1636,4.1634,4.1649,4.1624,4.1619,4.1613,4.1587,4.1583,4.1596,4.1595,4.1562,4.1558,4.1555,4.155,4.1541,4.154,4.1539,4.1518,4.1518,4.1519,0,0,0,0,0,0,4.1676,4.1672,4.1637,4.165,4.1645,4.1623,4.1616,4.1612,4.1606,4.1583,4.1579,4.1594,4.1561,4.1557,4.1547,4.1548,4.1539,4.1538,4.1518,4.1518,4.1519,4.154,0,0,0,0,0,0,4.1677,4.1673,4.1673,4.165,4.1645,4.163,4.1616,4.1612,4.1604,4.1602,4.158,4.1576,4.1561,4.1549,4.1546,4.1546,4.1537,4.1518,4.1518,4.1518,4.1539,4.1541,4.1542,0,0,0,0,0,4.1679,4.168,4.1673,4.1669,4.1644,4.163,4.1627,4.161,4.1604,4.1603,4.1588,4.1576,4.1549,4.1548,4.1544,4.1545,4.1518,4.1518,4.1518,4.1538,4.154,4.1542,0,0,0,0,0,0,4.1703,4.1677,4.1668,4.1663,4.1649,4.1626,4.1625,4.1614,4.1601,4.1599,4.1578,4.1573,4.1565,4.1553,4.1553,4.154,4.1531,4.1531,4.1548,4.155,4.1551,4.1554,4.1536,0,0,0,0,0,4.1707,4.1699,4.1677,4.1674,4.1667,4.1647,4.1641,4.1629,4.1613,4.1607,4.1592,4.1576,4.1564,4.1556,4.1544,4.1537,4.1531,4.1535,4.1537,4.1538,4.1538,4.1532,4.1533,4.152,4.152,4.152,0,0,4.1717,4.1702,4.1698,4.1678,4.1666,4.1657,4.1643,4.1634,4.1626,4.1606,4.1595,4.1582,4.1564,4.1555,4.155,4.1545,4.154,4.1539,4.154,4.1539,4.1532,4.1533,4.1534,4.152,4.152,4.152,0,0,4.1729,4.1718,4.1713,4.1701,4.1683,4.1669,4.1668,4.1647,4.1638,4.1626,4.161,4.16,4.158,4.1567,4.1557,4.1563,4.155,4.1559,4.1568,4.1562,4.1563,4.1564,4.1564,4.1565,4.1559,4.1559,4.1559,0,4.1743,4.173,4.1712,4.1704,4.1695,4.1676,4.167,4.1659,4.1638,4.1631,4.1626,4.1599,4.1585,4.1572,4.1573,4.1566,4.1563,4.1561,4.1564,4.1565,4.1565,4.1565,4.1566,4.156,4.156,4.156,4.156,0,4.1747,4.1737,4.1736,4.1716,4.1706,4.17,4.168,4.1672,4.1661,4.1647,4.1634,4.1617,4.16,4.1596,4.1584,4.158,4.1577,4.1569,4.156,4.1568,4.1567,4.1568,4.1562,4.1561,4.1561,4.1561,0,0,4.1774,4.1743,4.1743,4.1733,4.1711,4.1702,4.1694,4.1677,4.167,4.1656,4.1647,4.1629,4.162,4.1609,4.1596,4.1591,4.1594,4.1582,4.1582,4.1584,4.1586,4.1592,4.1592,4.1586,4.1586,4.1586,4.1587,0,4.1782,4.1767,4.175,4.174,4.173,4.1711,4.1703,4.1688,4.1674,4.1663,4.1647,4.1634,4.1625,4.1618,4.1612,4.1595,4.1594,4.1595,4.1576,4.1575,4.1581,4.1592,4.1599,4.1601,4.1587,4.1587,4.1587,0,4.179,4.1776,4.1765,4.1742,4.1737,4.1731,4.1713,4.1703,4.1685,4.1675,4.1662,4.1648,4.1636,4.1628,4.161,4.1611,4.1602,4.1592,4.1592,4.1589,4.1581,4.1589,4.1602,4.1602,4.1586,4.1586,4.1587,0,4.1809,4.1788,4.1778,4.177,4.1744,4.1739,4.1728,4.1709,4.1699,4.1683,4.1677,4.1659,4.165,4.1636,4.1616,4.1613,4.16,4.1591,4.159,4.1591,4.1588,4.1589,4.1599,4.1584,4.1584,4.1584,4.1584,0,4.1819,4.1813,4.1786,4.178,4.1772,4.1752,4.1744,4.173,4.1713,4.1703,4.1685,4.1676,4.1651,4.1638,4.1622,4.1609,4.1605,4.1595,4.1591,4.1597,4.1598,4.159,4.159,4.1584,4.1584,4.1584,4.1584,0,4.1839,4.1821,4.1809,4.1785,4.1779,4.1774,4.1752,4.1744,4.1729,4.1717,4.1712,4.1688,4.1672,4.1651,4.1628,4.1617,4.1605,4.1599,4.1612,4.1609,4.1609,4.1609,4.1615,4.1614,4.16,4.16,4.16,0,4.1847,4.1842,4.1817,4.1809,4.1798,4.1786,4.1776,4.1756,4.1746,4.1723,4.1718,4.17,4.1685,4.1659,4.1639,4.162,4.1613,4.1616,4.161,4.1615,4.1612,4.1612,4.1611,4.1618,4.1618,4.1618,4.1618,0,4.1862,4.1853,4.184,4.1823,4.1812,4.1798,4.1783,4.1777,4.1753,4.1742,4.1726,4.1714,4.169,4.1672,4.165,4.1637,4.1623,4.162,4.1619,4.1624,4.1631,4.1626,4.1615,4.162,4.162,4.162,4.162,4.162,4.1875,4.1869,4.185,4.1836,4.1822,4.1808,4.1799,4.1783,4.1769,4.1749,4.1737,4.172,4.1699,4.167,4.1656,4.1641,4.1636,4.1635,4.1634,4.1634,4.1635,4.1634,4.1637,4.1637,4.1637,4.1637,4.1637,0,4.1887,4.1874,4.1861,4.1841,4.1829,4.1818,4.18,4.1791,4.1777,4.1759,4.1744,4.1724,4.1706,4.1684,4.1664,4.1656,4.1649,4.1651,4.1651,4.1648,4.1641,4.1644,4.1657,4.1657,4.1657,4.1657,4.1657,4.1657,4.1893,4.1881,4.187,4.1851,4.1837,4.1822,4.1812,4.1798,4.1784,4.1763,4.1748,4.1734,4.1714,4.1692,4.1674,4.1668,4.1661,4.1665,4.1656,4.165,4.1649,4.1647,4.165,4.1664,4.1664,4.1664,4.1664,4.1664]}]]